TimeEST,TemperatureF,Dew PointF,Humidity,Sea Level PressureIn,VisibilityMPH,Wind Direction,Wind SpeedMPH,Gust SpeedMPH,PrecipitationIn,Events,Conditions,WindDirDegrees,DateUTC
12:53 AM,57.0,55.0,93,30.19,10.0,Calm,Calm,-,N/A,,Clear,0,2012-11-27 05:53:00
1:53 AM,55.9,55.0,97,30.19,10.0,Calm,Calm,-,N/A,,Mostly Cloudy,0,2012-11-27 06:53:00
2:53 AM,59.0,57.9,96,30.18,9.0,Calm,Calm,-,N/A,,Partly Cloudy,0,2012-11-27 07:53:00
3:53 AM,57.0,57.0,100,30.17,5.0,SE,3.5,-,N/A,,Clear,130,2012-11-27 08:53:00
4:53 AM,59.0,59.0,100,30.16,6.0,Calm,Calm,-,N/A,,Clear,0,2012-11-27 09:53:00
5:40 AM,57.2,57.2,100,30.17,1.8,SSE,3.5,-,N/A,,Clear,150,2012-11-27 10:40:00
5:53 AM,55.0,55.0,100,30.17,3.0,Calm,Calm,-,N/A,,Clear,0,2012-11-27 10:53:00
6:00 AM,55.4,55.4,100,30.17,2.0,Calm,Calm,-,N/A,,Partly Cloudy,0,2012-11-27 11:00:00
6:02 AM,55.4,55.4,100,30.17,0.8,Calm,Calm,-,N/A,,Mist,0,2012-11-27 11:02:00
6:19 AM,57.2,57.2,100,30.18,1.2,SSE,3.5,-,N/A,,Partly Cloudy,150,2012-11-27 11:19:00
6:23 AM,59.0,57.2,94,30.18,3.0,SSE,4.6,-,N/A,,Partly Cloudy,150,2012-11-27 11:23:00
6:53 AM,59.0,59.0,100,30.17,7.0,SE,5.8,-,N/A,,Clear,140,2012-11-27 11:53:00
7:35 AM,57.2,57.2,100,30.18,2.5,SE,5.8,-,N/A,,Clear,130,2012-11-27 12:35:00
7:45 AM,59.0,59.0,100,30.19,3.0,ESE,4.6,-,N/A,,Clear,120,2012-11-27 12:45:00
7:53 AM,59.0,59.0,100,30.19,3.0,ESE,3.5,-,N/A,,Clear,120,2012-11-27 12:53:00
8:53 AM,63.0,61.0,93,30.20,5.0,SE,4.6,-,N/A,,Clear,140,2012-11-27 13:53:00
9:53 AM,66.9,60.1,79,30.22,10.0,South,4.6,-,N/A,,Mostly Cloudy,170,2012-11-27 14:53:00
10:53 AM,72.0,62.1,71,30.21,10.0,Calm,Calm,-,N/A,,Mostly Cloudy,0,2012-11-27 15:53:00
11:53 AM,75.9,60.1,58,30.18,10.0,Variable,3.5,-,N/A,,Clear,0,2012-11-27 16:53:00
12:53 PM,75.9,57.9,54,30.15,10.0,SE,4.6,-,N/A,,Scattered Clouds,140,2012-11-27 17:53:00
1:53 PM,75.9,59.0,56,30.13,10.0,SSE,4.6,-,N/A,,Scattered Clouds,160,2012-11-27 18:53:00
2:53 PM,79.0,57.9,48,30.11,10.0,SSW,8.1,-,N/A,,Clear,210,2012-11-27 19:53:00
3:53 PM,77.0,59.0,54,30.11,10.0,WSW,5.8,-,N/A,,Clear,250,2012-11-27 20:53:00
4:53 PM,75.0,57.9,55,30.11,10.0,WSW,5.8,-,N/A,,Clear,240,2012-11-27 21:53:00
5:53 PM,70.0,59.0,68,30.12,10.0,Calm,Calm,-,N/A,,Clear,0,2012-11-27 22:53:00
6:02 PM,69.8,60.8,73,30.12,10.0,Calm,Calm,-,N/A,,Partly Cloudy,0,2012-11-27 23:02:00
6:53 PM,66.9,57.9,73,30.14,10.0,NW,4.6,-,0.00,,Clear,310,2012-11-27 23:53:00
7:53 PM,66.9,59.0,76,30.15,10.0,NW,3.5,-,N/A,,Clear,310,2012-11-28 00:53:00
8:53 PM,64.0,60.1,87,30.15,10.0,Calm,Calm,-,N/A,,Clear,0,2012-11-28 01:53:00
9:53 PM,62.1,61.0,96,30.15,9.0,Calm,Calm,-,N/A,,Clear,0,2012-11-28 02:53:00
10:53 PM,61.0,60.1,97,30.15,9.0,Calm,Calm,-,N/A,,Mostly Cloudy,0,2012-11-28 03:53:00
11:53 PM,60.1,59.0,96,30.15,6.0,Calm,Calm,-,N/A,,Clear,0,2012-11-28 04:53:00